Location: Blériot-Plage
(50.9575°N, 1.8224°E)
Time: 11:25:34
(UTC+00:00)

Cosmos 909 Rocket - Pass Details

Date: 15 May 2026
Orbit: 989 x 2090 km, 65.9° (Epoch: 6 June)

Event Time Altitude Azimuth Distance (km) Brightness Sun altitude
Rises 20:12:20 0° 203° (SSW) 3,773 6.9 -5.5°
Reaches altitude 10° 20:14:57 10° 200° (SSW) 2,775 6.2 -5.8°
Maximum altitude 20:21:07 62° 122° (ESE) 1,114 4.1 -6.5°
Drops below altitude 10° 20:27:32 10° 43° (NE) 2,876 6.5 -7.3°
Sets 20:30:18 0° 41° (NE) 3,922 7.2 -7.6°
